Weather in Americus

United States     32°04′18″N   84°13′57″W
temp.,
°C
wind,
m/s
gust,
m/s
humid.,
%
clouds,
%
prec.,
mm/h
press.,
hPa
HPBL,
m
7 may, fri
fri723:00+16wnw49630 0.0 1017198
02:00+14nw310633 0.0 1017243
05:00+13nw412680 0.0 1016294
08:00+13nw410780 0.0 1019321
11:00+19nw69490 0.0 10191227
14:00+22nw710310 0.0 10181773
17:00+21nw79290 0.0 10171999
20:00+16nw48500 0.0 1019202
8 may, sat
sat823:00+14nw38540 0.0 1020146
02:00+12nnw36620 0.0 1020106
05:00+11nnw22630 0.0 102033
08:00+13n12610 0.0 102263
11:00+20nw014183 0.0 1022814
14:00+24sw1234100 0.0 10211329
17:00+25ssw22355 0.0 10191476
20:00+21s2251100 0.0 101920
9 may, sun
sun923:00+19s224821 0.0 102014
02:00+17s225168 0.0 101925
05:00+15sse3657100 0.0 1018100
08:00+16sse39655 0.0 1020243
11:00+23s695254 0.0 1019750
14:00+28ssw61048100 0.0 10172013
17:00+30ssw7114446 0.0 10152826
20:00+25ssw41065100 0.0 1016375
10 may, mon
mon1023:00+23ssw3974100 0.0 1016437
02:00+20ssw399522 0.1 1016290
05:00+19sw31298100 0.0 1015495
08:00+20sw3995100 0.0 1017331
11:00+20wnw5893100 3.1 1018386
14:00+20s61095100 9.9 1016340
17:00+20ssw4791100 2.3 1016433
20:00+20ssw3694100 2.4 1016275
11 may, tue
tue1123:00+19sw2698100 0.8 1017217
02:00+18w259828 1.5 1017123
05:00+18nw359977 0.0 1017123
08:00+20nnw369476 0.0 1019244
11:00+24nnw347198 0.0 1019733
14:00+27nnw445399 0.0 10191440
17:00+28n4448100 0.0 10181731
20:00+23nne346677 0.0 101971